Location: Amsterdam
(30.7274°N, 84.4357°W)
Time: 04:41:02
(UTC+00:00)

MOZHAYETS 4 - Pass Details

Date: 18 March 2026
Orbit: 642 x 659 km, 98.3° (Epoch: 15 April)

Event Time Altitude Azimuth Distance (km) Brightness Sun altitude
Rises 00:27:09 0° 350° (N) 2,965 11.2 -9.4°
Reaches altitude 10° 00:30:03 10° 330° (NNW) 2,047 10.7 -10.0°
Maximum altitude 00:32:49 17° 292° (WNW) 1,651 10.9 -10.6°
Drops below altitude 10° 00:35:36 10° 253° (WSW) 2,035 11.4 -11.2°
Sets 00:38:29 0° 232° (SW) 2,938 11.8 -11.8°
